Regional Weather Roundup
Issued by NWS Charleston, SC

Current Version | Previous Version | Graphics & Text | Print | Product List | Glossary On
Versions: 1 2 3 4 5 6 7 8 9 10 11 12 13 14 15 16 17 18 19 20 21 22 23 24 25 26 27 28 29 30 31 32 33 34 35 36 37 38 39 40 41 42 43 44 45 46 47 48 49 50
315
ASUS42 KCHS 271527
RWRCHS

REGIONAL WEATHER ROUNDUP
NATIONAL WEATHER SERVICE CHARLESTON SC
1000 AM EST MON FEB 27 2017

NOTE: "FAIR" INDICATES FEW OR NO CLOUDS BELOW 12,000 FEET WITH NO
SIGNIFICANT WEATHER AND/OR OBSTRUCTIONS TO VISIBILITY.

NOT ALL STATIONS ARE QUALITY CONTROLLED. USE DATA WITH CAUTION...
ESPECIALLY DEWPOINT OBSERVATIONS.

SCZ027-030-031-034>040-042>050-271600-
...SOUTHEAST SOUTH CAROLINA...

CITY           SKY/WX    TMP DP  RH WIND       PRES   REMARKS
N CHARLESTON   MOSUNNY   68  44  42 SE13      30.37R
WATERFRONT PRK   N/A     65  52  62 E8        30.35R
MOUNT PLEASANT FAIR      66  48  52 E5        30.38R
JOHNS ISLAND   FAIR      68  50  52 SE7       30.37R
PINOPOLIS        N/A     55  46  71 NE6       30.29R
MONCKS CORNER  FAIR      63  43  48 E6        30.39R
SUMMERVILLE    FAIR      63  43  48 E5        30.39R
BEAUFORT MCAS  MOSUNNY   68  51  54 E8        30.35R
BEAUFORT ARPT  FAIR      68  50  52 E12       30.35R
HILTON HEAD IS NOT AVBL
WALTERBORO     SUNNY     63  45  51 E8        30.37S
ALLENDALE      FAIR      63  43  48 CALM      30.36R

...SOUTHERN MIDLANDS AND PEE DEE...

CITY           SKY/WX    TMP DP  RH WIND       PRES   REMARKS
GEORGETOWN     FAIR      64  46  52 E9        30.40R
KINGSTREE      FAIR      59  41  51 E5        30.42R
ORANGEBURG     MOSUNNY   58  42  55 E7        30.39R
BARNWELL       FAIR      61  45  55 E6        30.39R
AIKEN          FAIR      55  41  58 E12       30.41F
MANNING        FAIR      57  28  33 MISG      30.41R
COLUMBIA       MOSUNNY   56  42  59 SE3       30.41R
SUMTER         PTSUNNY   53  39  57 NE3       30.41R
FLORENCE       MOSUNNY   55  40  56 E7        30.42S
MYRTLE BEACH   SUNNY     61  43  51 NE12      30.42R
N MYRTLE BEACH SUNNY     60  46  59 NE8       30.40R

$$

GAZ063-065-086>088-099>101-113>116-118-119-134>141-150-271600-
...SOUTHEAST GEORGIA...

CITY           SKY/WX    TMP DP  RH WIND       PRES   REMARKS
SAVANNAH ARPT  PTSUNNY   67  52  58 E9        30.33R
HUNTER AAF     MOSUNNY   69  58  66 SE10G22   30.30R
FORT STEWART   CLOUDY    62  52  67 CALM      30.29S
STATESBORO     SUNNY     64  50  61 E5        30.35R
SYLVANIA       MOSUNNY  N/A N/A N/A E7        30.36R
CLAXTON        FAIR     N/A N/A N/A NE7       30.34R

...CSRA...CENTRAL AND FAR SOUTHEAST GEORGIA...

CITY           SKY/WX    TMP DP  RH WIND       PRES   REMARKS
THOMSON        MOSUNNY   58  45  62 SE5       30.40F
AUGUSTA-BUSH   CLOUDY    57  43  59 CALM      30.37S
AUGUSTA-DANIEL MOSUNNY   57  39  51 E8        30.38R
SWAINSBORO     FAIR      64  45  48 E12       30.34F
VIDALIA        HAZE      70  54  56 E8        30.33S VSB 1
EASTMAN        FAIR      61  35  38 SE7       30.33F
HAZLEHURST     FAIR      66  52  59 SE3       30.30S
ALMA           SUNNY     64  51  62 SE6       30.30R
WAYCROSS       SUNNY     72  59  64 SE8       30.30S
JESUP          FAIR      70  54  56 SE7       30.31R
BAXLEY         FAIR      64  54  68 SE8       30.30S
BRUNSWICK      SUNNY     72  59  64 SE12G20   30.32R
SAINT SIMONS   SUNNY     70  58  65 SE12      30.30R

$$

SCZ027-028-034-036>038-045-046-048>050-GAZ119-141-271600-
...LAKE AND SUPPLEMENTAL COASTAL OBSERVATIONS...

STATION/POSITION TIME  TEMP    WIND        PRES    WAVE   SWELL
                       AIR SEA DIR/SP/G            HT/PER HT/PER/DIR
                 (UTC) (F)     (DEG/KT/KT) (MB)    (FT/S) (FT/S/D)
WINYAH BAY       1430   62      90/  8     1028.0S
LAKE MURRAY      1450   54      90/  2/  3 1029.1R
ACE BASIN NERRS  1445   67     110/  5     1028.0R
FORT PULASKI     1500   66 62  110/  7/ 10 1027.3
SAPELO ISLAND    1500   72     140/  8     1026.0

$$

ANZ835-935-AMZ111-154-330-350-352-354-370-450-454-472-271600-
...C-MAN AND BUOY OBSERVATIONS...

STATION/POSITION TIME  TEMP    WIND        PRES    WAVE   SWELL
                       AIR SEA DIR/SP/G            HT/PER HT/PER/DIR
                 (UTC) (F)     (DEG/KT/KT) (MB)    (FT/S) (FT/S/D)
BUOY 41004       1450   68 69  130/ 17/ 19 1026.6R   3/ 9   2/120/ 9
BUOY 41008       1450   66 62  130/ 14/ 16 1025.5R   3/ 4   2/ 80/ 9
FOLLY BEACH CMAN 1500   63      50/  4/  5 1028.6R
CAPERS NEARSHORE 1508   63 60  120/  6/  8 1028.0R
FRIPP NEARSHORE  1508   63 61  100/  8/ 10 1027.1R


STATION/POSITION TIME  TEMP    WIND        PRES    WAVE   SWELL
                       AIR SEA DIR/SP/G            HT/PER HT/PER/DIR
                 (UTC) (F)     (DEG/KT/KT) (MB)    (FT/S) (FT/S/D)
5E ST. MARYS GA  1500      64                N/A     3/ 5
FRYING PAN BUOY  1510   66 69  120/ 16/ 19 1028.7
BUOY 41025       1450   61 71  100/ 10/ 12 1030.7F   4/ 8   3/110/ 8
CAPE LOOKOUT NC  1500   62     120/ 13/ 14 1029.6S
BUOY 41002       1450   66 70   80/ 12/ 16 1029.6R   4/ 8   3/ 70/ 8
BUOY 41010       NOT AVBL
ST AUGUSTINE FL  1500   68 65  130/ 11/ 12 1025.8R


$$




USA.gov is the U.S. government's official web portal to all federal, state and local government web resources and services.